Stations météo

réclame
Mon MeteoGroup
Loch Glascarnoch, Grande-Bretagne (3031): Température de l'air & dewpoint: 15.07.2019 16:00:00 - 21.07.2019 16:00:00 (BST)Loch Glascarnoch, Grande-Bretagne (3031): Température de l'air -20cm & Température de l'air -100cm: 15.07.2019 16:00:00 - 21.07.2019 16:00:00 (BST)Loch Glascarnoch, Grande-Bretagne (3031): Vitesse du vent: 15.07.2019 16:00:00 - 21.07.2019 16:00:00 (BST)Loch Glascarnoch, Grande-Bretagne (3031): Direction du vent: 15.07.2019 16:00:00 - 21.07.2019 16:00:00 (BST)Loch Glascarnoch, Grande-Bretagne (3031): reduced air pressure: 15.07.2019 16:00:00 - 21.07.2019 16:00:00 (BST)Loch Glascarnoch, Grande-Bretagne (3031): visibility: 15.07.2019 16:00:00 - 21.07.2019 16:00:00 (BST)Loch Glascarnoch, Grande-Bretagne (3031): Ensoleillement: 15.07.2019 16:00:00 - 21.07.2019 16:00:00 (BST)Loch Glascarnoch, Grande-Bretagne (3031): Quantités de précipitations: 15.07.2019 16:00:00 - 21.07.2019 16:00:00 (BST)
Date & Time tt [°C] td [°C] tt -20cm [°C] tt -100cm [°C] ff [km/h] ff [knt] dd ppp [hPa] vv [km] sd [min] rr [mm]
21.07.2019 16:00:00 17,0 9,2 - - 9 5 SSE 1009,0 45 0 0,0
21.07.2019 15:00:00 16,4 9,7 - - 16 9 SSW 1009,9 50 0 0,0
21.07.2019 14:00:00 16,9 9,3 - - 18 10 S 1010,1 50 0 0,0
21.07.2019 13:00:00 16,1 9,2 - - 16 9 S 1010,6 50 0 0,0
21.07.2019 12:00:00 15,2 10,1 - - 21 11 SSW 1011,0 40 6 0,0
21.07.2019 11:00:00 14,8 10,0 - - 18 10 SSW 1010,7 50 6 0,0
21.07.2019 10:00:00 13,6 10,5 14,4 12,9 15 8 WSW 1010,8 6 0 0,0
21.07.2019 09:00:00 13,1 10,1 - - 16 9 SSW 1010,6 9 0 0,0
21.07.2019 08:00:00 13,3 9,7 - - 15 8 SW 1010,1 50 6 0,0
21.07.2019 07:00:00 12,1 10,2 - - 8 4 W 1010,0 50 0 0,2
21.07.2019 06:00:00 12,4 9,9 - - 11 6 WSW 1009,5 50 0 0,2
21.07.2019 05:00:00 12,0 10,4 - - 13 7 SW 1009,2 9 0 0,0
21.07.2019 04:00:00 12,4 10,2 - - 13 7 WSW 1009,1 45 0 0,0
21.07.2019 03:00:00 12,0 10,5 - - 9 5 SW 1009,0 18 0 0,2
21.07.2019 02:00:00 12,1 10,0 - - 8 4 WNW 1009,0 40 0 0,0
21.07.2019 01:00:00 12,8 9,8 - - 13 7 SW 1008,7 45 - 0,0
21.07.2019 00:00:00 12,5 9,4 - - 15 8 SW 1008,6 50 0 0,0
20.07.2019 23:00:00 11,1 7,9 - - 8 4 W 1008,6 50 0 0,0
20.07.2019 22:00:00 12,8 7,8 - - 16 9 WSW 1007,9 50 0 0,0
20.07.2019 21:00:00 13,5 9,3 - - 11 6 WNW 1007,1 50 0 0,0
20.07.2019 20:00:00 14,2 8,6 - - 22 12 W 1006,4 45 18 0,0
20.07.2019 19:00:00 16,0 8,2 - - 28 15 W 1005,6 30 60 0,0
20.07.2019 18:00:00 15,9 9,1 - - 24 13 WNW 1005,1 40 24 0,0
20.07.2019 17:00:00 15,3 10,0 - - 21 11 WNW 1004,8 50 12 0,0
20.07.2019 16:00:00 14,6 10,0 - - 18 10 WNW 1004,5 40 0 0,0
20.07.2019 15:00:00 14,8 9,9 - - 26 14 NW 1003,6 29 0 0,0
20.07.2019 14:00:00 14,1 10,5 - - 21 11 W 1003,2 40 6 0,0
20.07.2019 13:00:00 13,4 10,5 - - 26 14 NW 1002,7 16 0 0,0
20.07.2019 12:00:00 14,1 11,3 - - 26 14 WNW 1001,7 12 0 0,0
20.07.2019 11:00:00 13,7 12,0 - - 16 9 WNW 1001,0 40 0 0,0
20.07.2019 10:00:00 13,3 12,1 14,5 12,9 21 11 WNW 1000,4 23 0 0,0
20.07.2019 09:00:00 13,4 12,1 - - 18 10 WNW 1000,2 19 0 0,0
20.07.2019 08:00:00 12,8 11,7 - - 11 6 WNW 999,9 35 0 0,0
20.07.2019 07:00:00 12,4 11,6 - - 11 6 WNW 999,8 35 0 0,0
20.07.2019 06:00:00 11,4 11,0 - - 5 3 W 999,9 30 0 0,0
20.07.2019 05:00:00 10,6 9,9 - - 9 5 WNW 1000,0 30 0 0,0
20.07.2019 04:00:00 10,9 9,8 - - 9 5 WNW 1000,1 30 0 0,0
20.07.2019 03:00:00 11,8 10,5 - - 9 5 WNW 1000,4 40 0 0,0
20.07.2019 02:00:00 12,2 10,7 - - 9 5 WNW 1000,8 45 0 0,0
20.07.2019 01:00:00 13,3 11,1 - - 8 4 NNW 1001,0 45 - 0,0
20.07.2019 00:00:00 12,6 11,1 - - 8 4 WNW 1001,3 50 0 0,0
19.07.2019 23:00:00 13,9 10,5 - - 4 2 S 1001,6 45 0 0,0
19.07.2019 22:00:00 14,1 11,0 - - 8 4 E 1002,1 50 0 0,0
19.07.2019 21:00:00 14,7 10,8 - - 4 2 W 1002,1 50 0 0,0
19.07.2019 20:00:00 15,6 11,1 - - 13 7 WNW 1002,1 29 0 0,0
19.07.2019 19:00:00 16,5 10,5 - - 9 5 W 1002,2 45 0 0,0
19.07.2019 18:00:00 16,9 8,6 - - 5 3 NNW 1002,5 50 0 0,0
19.07.2019 17:00:00 17,0 9,4 - - 9 5 SW 1002,9 30 6 0,0
19.07.2019 16:00:00 16,5 9,6 - - 11 6 SW 1003,5 45 6 0,0
19.07.2019 15:00:00 17,3 9,9 - - 15 8 W 1003,4 40 6 0,0
19.07.2019 14:00:00 16,0 9,2 - - 15 8 WSW 1003,8 50 0 0,0
19.07.2019 13:00:00 16,0 10,5 - - 15 8 WSW 1003,9 40 6 0,0
19.07.2019 12:00:00 16,2 9,7 - - 16 9 SW 1003,8 30 42 0,0
19.07.2019 11:00:00 13,3 10,8 - - 13 7 SW 1004,2 12 6 0,0
19.07.2019 10:00:00 12,6 10,6 14,2 12,9 15 8 SW 1004,4 5 0 0,2
19.07.2019 09:00:00 12,6 10,1 - - 11 6 SW 1004,2 45 0 0,2
19.07.2019 08:00:00 11,7 9,5 - - 16 9 SW 1004,3 15 0 0,0
19.07.2019 07:00:00 12,1 9,2 - - 8 4 NNE 1003,8 40 0 0,2
19.07.2019 06:00:00 11,8 9,0 - - 18 10 SW 1003,6 22 0 0,0
19.07.2019 05:00:00 12,0 9,4 - - 13 7 SSW 1003,6 23 0 0,0
19.07.2019 04:00:00 12,0 9,2 - - 11 6 SSW 1003,4 40 0 0,0
19.07.2019 03:00:00 11,9 9,2 - - 8 4 S 1003,5 45 0 0,0
19.07.2019 02:00:00 11,8 9,5 - - 4 2 SSW 1003,6 40 0 0,0
19.07.2019 01:00:00 11,5 9,4 - - 8 4 SSW 1003,8 35 - 0,0
19.07.2019 00:00:00 11,6 9,9 - - 15 8 SW 1003,6 30 0 0,2
18.07.2019 23:00:00 11,6 9,8 - - 5 3 WSW 1003,6 50 0 0,6
18.07.2019 22:00:00 11,6 9,7 - - 8 4 W 1003,6 40 0 0,0
18.07.2019 21:00:00 12,4 10,2 - - 13 7 W 1003,0 40 0 1,0
18.07.2019 20:00:00 13,6 9,8 - - 24 13 W 1002,4 35 6 0,0
18.07.2019 19:00:00 13,5 10,2 - - 15 8 WSW 1002,0 50 0 0,4
18.07.2019 18:00:00 13,9 10,2 - - 21 11 SW 1001,7 45 0 0,2
18.07.2019 17:00:00 13,4 11,4 - - 9 5 W 1001,6 29 0 1,0
18.07.2019 16:00:00 15,2 10,6 - - 21 11 WSW 1001,1 35 0 0,0
18.07.2019 15:00:00 13,8 11,1 - - 24 13 SW 1001,2 28 18 0,2
18.07.2019 14:00:00 13,9 9,6 - - 24 13 SW 1001,4 9 0 0,0
18.07.2019 13:00:00 14,6 10,2 - - 22 12 WSW 1000,9 35 0 1,0
18.07.2019 12:00:00 14,7 9,7 - - 21 11 SW 1000,9 23 0 0,0
18.07.2019 11:00:00 13,8 9,4 - - 13 7 SW 1001,0 24 12 0,0
18.07.2019 10:00:00 15,0 9,1 14,4 12,9 18 10 WSW 1000,8 30 18 0,0
18.07.2019 09:00:00 13,7 10,8 - - 13 7 SW 1001,0 50 0 0,2
18.07.2019 08:00:00 12,8 9,4 - - 16 9 SW 1001,1 35 0 0,0
18.07.2019 07:00:00 12,3 10,2 - - 8 4 SW 1001,1 40 0 0,0
18.07.2019 06:00:00 11,6 9,6 - - 4 2 E 1001,5 10 0 0,0
18.07.2019 05:00:00 11,0 9,7 - - 5 3 SSW 1001,8 45 0 0,0
18.07.2019 04:00:00 11,0 9,7 - - 4 2 SSE 1002,2 45 0 0,2
18.07.2019 03:00:00 11,6 10,1 - - 15 8 SW 1002,6 45 0 0,0
18.07.2019 02:00:00 9,5 7,8 - - 2 1 NE 1003,0 45 0 0,0
18.07.2019 01:00:00 10,9 8,6 - - 9 5 WNW 1002,9 45 - 0,0
18.07.2019 00:00:00 11,7 9,0 - - 11 6 SW 1003,3 30 0 0,0
17.07.2019 23:00:00 11,9 8,8 - - 5 3 ESE 1003,4 20 0 0,0
17.07.2019 22:00:00 12,1 9,4 - - 8 4 W 1003,6 50 6 0,0
17.07.2019 21:00:00 14,1 10,9 - - 16 9 WSW 1003,0 45 6 0,2
17.07.2019 20:00:00 14,6 11,9 - - 21 11 WSW 1002,5 50 0 0,0
17.07.2019 19:00:00 14,9 12,7 - - 18 10 SSW 1002,6 6 0 0,4
17.07.2019 18:00:00 15,5 13,1 - - 11 6 S 1002,7 14 0 0,4
17.07.2019 17:00:00 15,8 12,2 - - 11 6 S 1003,1 9 0 0,2
17.07.2019 16:00:00 15,6 12,8 - - 15 8 SSE 1003,5 6 0 0,0
17.07.2019 15:00:00 15,1 12,1 - - 21 11 SE 1004,0 45 0 0,2
17.07.2019 14:00:00 14,2 12,0 - - 16 9 SE 1004,7 13 0 0,6
17.07.2019 13:00:00 14,3 12,2 - - 15 8 SE 1005,2 22 0 0,8
17.07.2019 12:00:00 14,1 11,0 - - 18 10 SE 1005,7 45 0 0,4
17.07.2019 11:00:00 14,8 11,2 - - 15 8 ESE 1005,8 35 0 0,4
17.07.2019 10:00:00 14,9 11,4 14,7 12,7 18 10 ESE 1006,4 40 0 0,0
17.07.2019 09:00:00 14,6 12,2 - - 18 10 ESE 1007,0 30 0 0,0
17.07.2019 08:00:00 14,1 12,1 - - 18 10 ESE 1007,7 35 0 0,0
17.07.2019 07:00:00 13,6 12,0 - - 15 8 ESE 1008,5 27 0 0,0
17.07.2019 06:00:00 12,9 11,7 - - 4 2 SE 1009,5 30 0 0,0
17.07.2019 05:00:00 12,9 11,8 - - 8 4 E 1010,2 29 0 0,0
17.07.2019 04:00:00 12,5 11,5 - - 8 4 E 1011,0 24 0 0,0
17.07.2019 03:00:00 12,9 11,3 - - 5 3 S 1012,0 30 0 0,2
17.07.2019 02:00:00 13,3 11,1 - - 5 3 NE 1012,7 19 0 0,0
17.07.2019 01:00:00 13,5 10,5 - - 8 4 NW 1013,1 40 - 0,0
17.07.2019 00:00:00 13,6 10,1 - - 5 3 ESE 1013,5 40 0 0,0
16.07.2019 23:00:00 13,5 10,0 - - 4 2 SW 1014,1 45 0 0,0
16.07.2019 22:00:00 14,1 9,5 - - 2 1 WSW 1014,3 40 0 0,0
16.07.2019 21:00:00 15,5 8,5 - - 13 7 WSW 1014,4 50 18 0,0
16.07.2019 20:00:00 16,9 9,1 - - 15 8 WSW 1014,5 35 60 0,0
16.07.2019 19:00:00 18,1 9,2 - - 18 10 WSW 1014,4 45 60 0,0
16.07.2019 18:00:00 18,1 9,3 - - 24 13 WSW 1014,8 40 60 0,0
16.07.2019 17:00:00 19,0 9,8 - - 24 13 WSW 1014,8 40 60 0,0
16.07.2019 16:00:00 19,3 11,0 - - 21 11 WSW 1015,1 35 42 0,0
16.07.2019 15:00:00 18,2 9,5 - - 16 9 WSW 1015,2 45 42 0,0
16.07.2019 14:00:00 19,2 11,6 - - 21 11 SW 1015,3 30 18 0,0
16.07.2019 13:00:00 17,6 12,0 - - 18 10 WSW 1015,8 30 6 0,0
16.07.2019 12:00:00 17,1 12,3 - - 15 8 WSW 1015,9 30 0 0,0
16.07.2019 11:00:00 16,6 11,1 - - 5 3 SW 1015,9 50 0 0,0
16.07.2019 10:00:00 16,6 10,8 14,5 12,7 11 6 WSW 1016,2 50 0 0,0
16.07.2019 09:00:00 15,7 12,0 - - 5 3 E 1016,5 45 6 0,0
16.07.2019 08:00:00 13,0 11,8 - - 5 3 E 1016,8 45 36 0,0
16.07.2019 07:00:00 11,1 10,9 - - 4 2 W 1017,3 30 12 0,0
16.07.2019 06:00:00 9,9 9,6 - - 2 1 SE 1017,9 15 0 0,0
16.07.2019 05:00:00 9,8 9,6 - - 4 2 E 1018,0 11 0 0,0
16.07.2019 04:00:00 9,3 9,0 - - 2 1 E 1018,3 12 0 0,0
16.07.2019 03:00:00 8,7 8,3 - - 2 1 E 1019,0 9 0 0,0
16.07.2019 02:00:00 8,3 7,7 - - 0 0 N 1019,3 22 0 0,0
16.07.2019 01:00:00 9,3 8,3 - - 2 1 WNW 1019,5 17 - 0,0
16.07.2019 00:00:00 10,6 9,3 - - 4 2 W 1019,4 45 0 0,0
15.07.2019 23:00:00 12,1 9,6 - - 4 2 W 1019,5 50 0 0,0
15.07.2019 22:00:00 14,9 10,5 - - 4 2 WSW 1019,4 50 0 0,0
15.07.2019 21:00:00 15,4 10,5 - - 16 9 WNW 1019,4 45 0 0,0
15.07.2019 20:00:00 15,7 11,0 - - 15 8 WNW 1019,4 50 0 0,0
15.07.2019 19:00:00 16,6 10,7 - - 18 10 WNW 1019,3 50 0 0,0
15.07.2019 18:00:00 17,9 11,5 - - 18 10 WNW 1019,0 50 0 0,0
15.07.2019 17:00:00 19,0 11,9 - - 22 12 WNW 1018,9 45 6 0,0
15.07.2019 16:00:00 20,7 12,0 - - 11 6 WNW 1019,1 45 0 0,0

tt = Température de l'air
td = dewpoint
tt -20cm = Température de l'air -20cm
tt -100cm = Température de l'air -100cm
ff = Vitesse du vent
dd = Direction du vent
ppp = reduced air pressure
vv = visibility
sd = Ensoleillement
rr = Quantités de précipitations

stations d'obs. à proximité